Regional Weather Roundup
Issued by NWS

Home | Current Version | Previous Version | Text Only | Print | Product List | Glossary Off
Versions: 1 2 3 4 5 6 7 8 9 10 11 12 13 14 15 16 17 18 19 20 21 22 23 24 25 26 27 28 29 30 31 32 33 34 35 36 37 38 39 40 41 42 43 44 45 46 47 48 49 50

000
ASUS45 KCYS 261210
RWRWY

WYOMING REGIONAL WEATHER ROUNDUP
NATIONAL WEATHER SERVICE CHEYENNE WY
600 AM MDT TUE MAY 26 2015

NOTE:  "FAIR" INDICATES FEW OR NO CLOUDS BELOW 12,000 FEET
WITH NO SIGNIFICANT WEATHER AND/OR OBSTRUCTIONS TO VISIBILITY.

WYZ001-261300-
YELLOWSTONE NATIONAL PARK

CITY           SKY/WX    TMP DP  RH WIND       PRES   REMARKS
LK YELLOWSTONE   N/A     37  36  96 CALM      30.10R
6HR MIN TEMP:  33; 6HR MAX TEMP:  38; 6HR PCP:  0.04;

W YELLOWSTONE  NOT AVBL

$$
WYZ002>013-054>058-071-098>099-261300-
NORTHERN WYOMING

CITY           SKY/WX    TMP DP  RH WIND       PRES   REMARKS
JACKSON        CLOUDY    43  43 100 CALM      30.06R
CODY           FAIR      45  39  81 CALM      29.96R
GREYBULL       FAIR      46  44  93 SE3       29.94S
6HR MIN TEMP:  46; 6HR MAX TEMP:  54;

WORLAND        FAIR      43  41  93 CALM      29.94R
6HR MIN TEMP:  43; 6HR MAX TEMP:  51;

SHERIDAN       FAIR      38  37  97 CALM      29.95R
6HR MIN TEMP:  38; 6HR MAX TEMP:  47;

BUFFALO        FAIR      46  39  76 NW5       29.96S
6HR MIN TEMP:  42; 6HR MAX TEMP:  48;

GILLETTE       FOG       39  38  96 CALM      29.97R VSB 1/4
6HR MIN TEMP:  38; 6HR MAX TEMP:  47;

HULETT         FAIR      43  43 100 CALM      29.99S
NEWCASTLE      CLOUDY    50  50 100 S5        30.00R

$$
WYZ014>020-022>026-101>103-261300-
CENTRAL WYOMING

CITY           SKY/WX    TMP DP  RH WIND       PRES   REMARKS
BIG PINEY      FAIR      35  33  92 CALM      30.08R
6HR MIN TEMP:  35; 6HR MAX TEMP:  42;

PINEDALE       FAIR      34  34 100 W5        30.09R WCI  30
DUBOIS         CLOUDY    37  36  93 NW12      30.05R WCI  30
LANDER         FAIR      43  37  79 W6        29.99R
6HR MIN TEMP:  42; 6HR MAX TEMP:  49;

RIVERTON       FAIR      43  41  93 W8        30.00R
6HR MIN TEMP:  42; 6HR MAX TEMP:  50;

CASPER         FAIR      43  40  89 SW10      29.99S
6HR MIN TEMP:  41; 6HR MAX TEMP:  49;

DOUGLAS        FOG       39  38  96 CALM      30.01R VSB 1/4
6HR MIN TEMP:  38; 6HR MAX TEMP:  48;


$$
WYZ021-027>030-104>119-261300-
SOUTHERN WYOMING

CITY           SKY/WX    TMP DP  RH WIND       PRES   REMARKS
EVANSTON       CLOUDY    41  37  86 S6        30.09R
6HR MIN TEMP:  39; 6HR MAX TEMP:  44;

KEMMERER       FAIR      36  34  93 CALM      30.10R
FORT BRIDGER   CLOUDY    45  39  81 W5        30.11R
ROCK SPRINGS   FAIR      41  37  86 SW8       30.07R
6HR MIN TEMP:  40; 6HR MAX TEMP:  44;

DIXON          CLOUDY    40  38  93 CALM      30.12R
RAWLINS        FAIR      43  39  86 SW8       30.07R
6HR MIN TEMP:  38; 6HR MAX TEMP:  43;

SARATOGA       PTSUNNY   39  37  93 S7        30.10R WCI  34
LARAMIE        FAIR      38  36  92 SE7       30.07R WCI  33
6HR MIN TEMP:  35; 6HR MAX TEMP:  40;

CHEYENNE       FAIR      44  37  76 W9        30.03S
6HR MIN TEMP:  41; 6HR MAX TEMP:  46;

TORRINGTON     FOG       44  43  96 W5        29.99R VSB<1/4
6HR MIN TEMP:  43; 6HR MAX TEMP:  50;

PINE BLUFFS    PTSUNNY   41  39  93 W5        30.03R

$$



USA.gov is the U.S. government's official web portal to all federal, state and local government web resources and services.